Skip Page Navigation
NASA JPL Caltech
NASA Logo - Jet Propulsion Laboratory + View the NASA Portal
+ Center for Near-Earth Object Studies
JPL Home Earth Solar System Stars & Galaxies Technology
JPL Solar System Dynamics
BODIES ORBITS EPHEMERIDES TOOLS PHYSICAL DATA DISCOVERY FAQ SITE MAP
JPL Small-Body Database Browser
Search: [ help ]  
67242 (2000 EG47)
Classification: Main-belt Asteroid          SPK-ID: 2067242
Ephemeris | Orbit Diagram | Orbital Elements | Mission Design | Physical Parameters | Discovery Circumstances | Close-Approach Data ]

[ show orbit diagram ]
Orbital Elements at Epoch 2459200.5 (2020-Dec-17.0) TDB
Reference: JPL 27 (heliocentric ecliptic J2000)
 Element Value Uncertainty (1-sigma)   Units 
e .1491541967832707 3.5661e-08  
a 3.115192557159973 1.7168e-08 au
q 2.650548513471554 1.15e-07 au
i 1.224173884356433 4.2011e-06 deg
node 51.26888257739739 0.00020818 deg
peri 56.83598356172403 0.00020906 deg
M 340.9927715332032 1.7008e-05 deg
tp 2459306.533248250855
(2021-Apr-02.03324825)
9.497e-05 TDB
period 2008.28697550458
5.50
1.6602e-05
4.545e-08
d
yr
n .1792572497810232 1.4819e-09 deg/d
Q 3.579836600848391 1.9729e-08 au
  Orbit Determination Parameters
   # obs. used (total)      1263  
   data-arc span      12106 days (33.14 yr)  
   first obs. used      1988-01-12  
   last obs. used      2021-03-05  
   planetary ephem.      DE441  
   SB-pert. ephem.      SB441-N16  
   condition code      0  
   norm. resid. RMS      .51497  
   source      ORB  
   producer      Otto Matic  
   solution date      2021-Apr-13 12:28:47  

Additional Information
 Earth MOID = 1.66744 au 
 Jupiter MOID = 1.54609 au 
 T_jup = 3.200 
[ show covariance matrix ]

Ephemeris | Orbit Diagram | Orbital Elements | Mission Design | Physical Parameters | Discovery Circumstances | Close-Approach Data ]

Physical Parameter Table
Parameter Symbol Value Units Sigma Reference Notes
absolute magnitude H 14.51   n/a E2021B10  
diameter diameter 5.892 km 0.101 urn:nasa:pds:neowise_diameters_albedos::2.0[mainbelt] (http://adsabs.harvard.edu/abs/2011ApJ...741...68M)  
geometric albedo albedo 0.081   0.027 urn:nasa:pds:neowise_diameters_albedos::2.0[mainbelt] (http://adsabs.harvard.edu/abs/2011ApJ...741...68M)  

67242 (2000 EG47)          Discovered 2000-Mar-09 by LINEAR at Socorro
Reference: 20030910/Numbers.arcLast Updated: 2004-04-19

[ show close-approach data ]
Alternate Designations
 2000 EG47 = 1988 AV3 
Ephemeris | Orbit Diagram | Orbital Elements | Mission Design | Physical Parameters | Discovery Circumstances | Close-Approach Data ]
ABOUT SSD CREDITS/AWARDS PRIVACY/COPYRIGHT GLOSSARY LINKS
FirstGov 2021-Jun-25 03:04 UT
(server date/time)  
NASA Home Page
Site Manager:   Ryan S. Park
Webmaster  Alan B. Chamberlin